Satellite: RS-38 Catalog number: 35869 Epoch time: 10007.60476772 Element set: 97 Inclination: 098.7822 deg RA of node: 062.3882 deg Eccentricity: 0.0005389 Arg of perigee: 105.9837 deg Mean anomaly: 254.1905 deg Mean motion: 14.21975483 rev/day Decay rate: 1.76e-06 rev/day^2 Epoch rev: 1590 Checksum: 337
/EX